www.pogodaiklimat.ru

Погода и климат >> Архив погоды >> Россия >> Камчатский край >> Петропавловск-Камчатский


АРХИВ ПОГОДЫ в Петропавловск-Камчатском

Время (UTC), дата Ветер
(напр.,м/с)
 
Видим.   Явления Облачность Т
(С)
Тd
(С)
f
(%)
Тe
(С)
Тes
(С)
Комфортность P
(гПа)
Po
(гПа)
Тmin
(С)
Tmax
(С)
R
(мм)
R24
(мм)
S
(см)
06 19.08 В 4 20 км {ливн. осадки} 10/10 600 м
[Sc]
+14.4 +10.2 76 +13 +13 по сезону 1020.0 1017.1
09 19.08 В 4 20 км 9/9 600 м
[Sc]
+14.2 +9.0 71 +13 +13 по сезону 1020.8 1017.9 +17.8 0.0
12 19.08 В 5-12
{14}
20 км 10/10 600 м
[Sc]
+13.8 +7.9 68 +12 +12 по сезону 1021.1 1018.2
15 19.08 В 4-10
{14}
20 км 10/10 600 м
[Sc]
+13.5 +7.3 66 +12 +12 по сезону 1020.5 1017.6
18 19.08 ЮВ 2
{14}
10 км 10/10 300 м
[Sc]
+12.7 +7.6 71 +12 +12 по сезону 1021.4 1018.4
21 19.08 З 1 20 км в посл. час ливневой дождь 10/10 600 м
[Sc]
+12.5 +9.1 80 +13 +13 по сезону 1012.5 1018.6 +11.9 0.0
00 20.08 ЮВ 1 20 км {ливн. осадки} 10/10 300 м
[Sc]
+13.2 +9.5 78 +13 +13 по сезону 1020.6 1017.6
03 20.08 Ю 2 50 км 8/3 600 м
[Sc Ci fib]
+14.9 +9.7 71 +15 +21 по сезону 1018.7 1015.8
06 20.08 ЮВ 3
{10}
20 км 9/9 600 м
[Sc]
+12.6 +8.7 77 +11 +11 прохладно 1017.9 1015.0
09 20.08 ЮВ 2 10 км 10/10 300 м
[St]
+11.2 +8.3 82 +10 +10 прохладно 1018.3 1015.4 +15.4
12 20.08 ЮВ 2 10 км морось 10/10 100 м
[St]
+10.5 +8.4 87 +9 +9 прохладно 1018.0 1015.1
15 20.08 С 2 10 км {морось} 10/10 200 м
[St]
+10.8 +8.8 87 +9 +9 по сезону 1016.3 1013.4
18 20.08 С 2 10 км {морось} 10/10 300 м
[St]
+11.0 +9.4 90 +10 +10 по сезону 1015.2 1012.3
21 20.08 С 1 10 км 10/10 300 м
[St]
+12.8 +10.0 83 +13 +13 по сезону 1015.7 1012.8 +10.5 0.0
00 21.08 Ю 1 50 км 4/3 600 м
[Sc Ac trans]
+15.1 +10.4 73 +16 +24 тепло 1014.9 1012.0
03 21.08 ЮВ 5 50 км 8/3 600 м
[Sc Ac trans Ci fib]
+14.8 +9.5 71 +13 +16 по сезону 1013.8 1010.9
06 21.08 ЮВ 6-11
{11}
10 км туман на расстоянии 10/10 600 м
[Sc]
+11.4 +8.1 80 +8 +8 холодно 1014.8 1011.9
09 21.08 ЮВ 4
{11}
10 км туман на расстоянии 10/10 200 м
[St]
+10.2 +8.1 87 +8 +8 прохладно 1016.6 1013.7 +16.9
12 21.08 ЮВ 1 4000 м слаб. ливневой дождь 10/10 200 м
[Cb cap]
+10.2 +8.9 92 +10 +10 по сезону 1018.1 1015.2
15 21.08 ЮВ 1 4000 м слаб. ливневой дождь 10/10 200 м
[Cb cap]
+10.1 +9.0 93 +10 +10 по сезону 1017.9 1015.0
18 21.08 ЮВ 1 4000 м слаб. ливневой дождь 10/10 200 м
[Cb cap]
+10.1 +8.9 92 +10 +10 по сезону 1018.0 1015.0
21 21.08 штиль 0 2000 м слаб. ливневой дождь 10/10 200 м
[Cb cap]
+11.1 +9.9 92 +10 +10 по сезону 1018.6 1015.7 +9.9 2
00 22.08 ЮВ 2 20 км {ливн. осадки} 8/8 200 м
[St Ci fib]
+11.6 +9.1 85 +10 +13 прохладно 1018.9 1016.0
03 22.08 ЮВ 3 20 км 9/9 300 м
[Sc]
+12.1 +8.5 79 +11 +11 прохладно 1018.9 1016.0
06 22.08 ЮВ 1 20 км 8/5 600 м
[Sc Ci fib]
+13.4 +8.9 74 +14 +15 по сезону 1018.4 1015.5
09 22.08 ЮВ 3 20 км 10/10 600 м
[Sc]
+10.8 +7.9 82 +9 +9 прохладно 1019.0 1016.1 +13.9 0.0
12 22.08 ЮВ 2 20 км 10/10 600 м
[Sc]
+10.8 +8.4 85 +9 +9 по сезону 1019.4 1016.5
15 22.08 ЮВ 1 20 км 10/10 600 м
[Sc]
+10.7 +8.6 87 +10 +10 по сезону 1019.2 1016.3
18 22.08 ЮВ 1 20 км 10/10 200 м
[St]
+10.8 +8.9 88 +10 +10 по сезону 1019.0 1016.0
21 22.08 С 1 20 км туман на расстоянии 9/9 300 м
[Sc]
+13.0 +10.1 83 +13 +14 по сезону 1019.2 1016.3 +10.6
00 23.08 штиль 0 20 км 6/5 300 м
[Sc Ac trans]
+17.6 +11.8 69 +18 +24 тепло 1019.3 1016.4
03 23.08 Ю 2 50 км 3/3 600 м
[Sc]
+15.3 +10.4 73 +15 +22 по сезону 1018.9 1016.0
06 23.08 ЮВ 5 50 км 3/3 600 м
[Sc]
+14.7 +9.9 73 +13 +14 по сезону 1019.2 1016.3
09 23.08 ЮВ 2 50 км 1/1 200 м
[St]
+11.8 +9.3 85 +11 +11 по сезону 1019.9 1017.0 +17.7
12 23.08 штиль 0 20 км 3/3 100 м
[St]
+10.4 +8.7 89 +10 +10 по сезону 1021.3 1018.3
15 23.08 С 1 20 км 10/10 100 м
[St]
+10.9 +9.1 89 +11 +11 по сезону 1021.4 1018.5
18 23.08 штиль 0 2000 м туман на расстоянии 10/10 200 м
[St]
+10.9 +9.5 91 +10 +10 по сезону 1021.8 1018.9
21 23.08 ЮВ 1 4000 м туман на расстоянии 10/10 200 м
[St]
+11.5 +9.2 86 +11 +11 по сезону 1022.5 1019.6 +10.3
00 24.08 Ю 1 10 км туман на расстоянии 10/10 200 м
[St]
+13.9 +10.1 78 +14 +14 по сезону 1022.5 1019.6
03 24.08 Ю 1 4000 м туман на расстоянии 10/10 200 м
[St]
+13.0 +10.4 84 +13 +13 по сезону 1022.5 1019.6
06 24.08 ЮВ 4 10 км туман на расстоянии 10/10 200 м
[St]
+11.7 +8.7 82 +10 +10 прохладно 1021.9 1018.9
09 24.08 ЮВ 2 10 км туман на расстоянии 10/10 200 м
[St]
+10.8 +7.8 82 +9 +9 прохладно 1022.2 1019.2 +14.3 0.0
12 24.08 ЮВ 2 10 км 10/10 300 м
[St]
+10.7 +7.4 80 +9 +9 по сезону 1022.0 1019.1
15 24.08 ЮВ 3 10 км 10/10 300 м
[Sc]
+10.4 +7.1 80 +8 +8 прохладно 1021.1 1018.1
18 24.08 ЮВ 3 20 км 10/10 300 м
[Sc]
+10.1 +6.5 78 +8 +8 по сезону 1020.4 1017.5
21 24.08 ЮВ 4 20 км 10/10 600 м
[Sc]
+10.3 +6.7 78 +8 +8 прохладно 1020.4 1017.5 +10.1
00 25.08 ЮВ 3 10 км в посл. час дождь 10/10 600 м
[Sc]
+10.0 +6.5 79 +8 +8 холодно 1019.7 1016.7 +9.6
03 25.08 ЮВ 3 10 км слаб. дождь 10/10 300 м
[Frnb Ns]
+10.1 +7.6 84 +8 +8 холодно 1018.1 1015.2
06 25.08 ЮВ 3 10 км слаб. дождь 10/10 300 м
[Frnb Ns]
+9.6 +7.2 85 +7 +7 холодно 1017.0 1014.0
09 25.08 В 3
{10}
2000 м дождь 10/10 300 м
[Frnb Ns]
+9.0 +7.4 90 +6 +6 холодно 1015.6 1012.7 +10.9 4
12 25.08 В 5-12
{12}
2000 м слаб. дождь 10/10 300 м
[Frnb Ns]
+9.0 +6.8 86 +6 +6 холодно 1013.8 1010.9
15 25.08 В 4-12
{14}
2000 м слаб. дождь 10/10 300 м
[Frnb Ns]
+9.8 +7.6 86 +7 +7 прохладно 1011.3 1008.4
18 25.08 В 4-12
{13}
4000 м дождь 10/10 300 м
[Frnb Ns]
+10.1 +7.8 86 +7 +7 прохладно 1009.5 1006.6
21 25.08 В 4-12
{14}
10 км слаб. дождь 10/10 300 м
[Frnb Ns]
+11.3 +8.2 81 +9 +9 прохладно 1008.7 1005.8 +8.7 11
00 26.08 В 2
{12}
4000 м дождь 10/10 300 м
[Frnb Ns]
+11.3 +9.0 86 +10 +10 прохладно 1007.7 1004.8
03 26.08 З 1 10 км слаб. дождь 10/10 300 м
[Frnb Ns]
+13.1 +9.9 81 +13 +13 по сезону 1006.0 1003.1

 

Местоположение метеостанции Петропавловск-Камчатский (Камчатский край, Россия): широта 52.87 долгота 158.60 высота над уровнем моря 24 м.

В архиве по умолчанию представлена погода в Петропавловск-Камчатском за последнюю неделю. Архивные данные за месяц целиком и за предыдущие месяцы, начиная с января 2011 года, Вы можете получить, выбрав интересующий диапазон дат из раскрывающегося списка и нажав кнопку "Ввод!".


*Определитесь, кто Вы:
робот инопланетянин человек

Внимание! Время в таблицах - всемирное. Для получения местного времени необходимо прибавить поправку, которая равна 12 ч.

Смотрите также архив погоды в соседних городах и на ближайших метеорологических станциях:

Погода в Петропавловском Маяке (Камчатский край, Россия) (7 км)
Погода в Петропавловск-Камч. 2 (Камчатский край, Россия) (24 км)
Погода в Сосновке (Камчатский край, Россия) (31 км)
Погода в Начиках (Камчатский край, Россия) (66 км)
Погода в Водопадной (Камчатский край, Россия) (124 км)
Погода в Пущино (Камчатский край, Россия) (151 км)
Погода в Большерецке (Камчатский край, Россия) (155 км)
Погода в Семячике (Камчатский край, Россия) (163 км)
Погода в Мильково (Камчатский край, Россия) (201 км)
Погода в Озерной (Камчатский край, Россия) (215 км)

Пояснения к столбцам:

Ветер - указаны скорость ветра в м/с - средняя за 10 мин, порывы в срок и между сроками (в фигурных скобках) и направление, откуда дует ветер: С - северный, СВ - северо-восточный, В - восточный, ЮВ - юго-восточный, Ю - южный, ЮЗ - юго-западный, З - западный, СЗ - северо-западный.
Видимость - горизонтальная дальность видимости в метрах или километрах. При видимости от 1 до 10 км при отсутствии осадков обычно наблюдается дымка, при ухудшении видимости до 1 км и менее - туман. В сухую погоду видимость может ухудшаться дымом, пылью или мглою.
Явления - указаны атмосферные явления, наблюдавшиеся в срок или в последний час перед сроком; фигурными скобками обозначены явления, наблюдавшиеся между сроками (за 1-3 часа до срока); квадратными скобками обозначены град или гололедные отложения с указанием их диаметра в мм.
Облачность - указаны через наклонную черту общая и нижняя облачность в баллах и высота нижней границы облаков в метрах; квадратными скобками обозначены формы облаков: Ci - перистые, Cs - перисто-слоистые, Cc - перисто-кучевые, Ac - высококучевые, As - высокослоистые, Sc - слоисто-кучевые, Ns - слоисто-дождевые, Cu - кучевые, Cb - кучево-дождевые. Подробнее классификацию облаков см. в Атласе облаков (PDF).
T - Температура воздуха - температура, измеренная на высоте 2 м над землей.
Td - Температура точки росы - температура, при понижении до которой содержащийся в воздухе водяной пар достигнет насыщения.
f - Относительная влажность воздуха - влажноcть воздуха, измеренная на высоте 2 м над землей.
Te - Эффективная температура - температура, которую ощущает одетый по сезону человек в тени. Характеристика душности погоды. При расчете учитывается влияние влажности воздуха и скорости ветра на теплоощущения человека.
Tes - Эффективная температура на солнце - температура, которую ощущает человек, с поправкой на солнечный нагрев. Характеристика знойности погоды. Зависит от высоты солнца над горизонтом, облачности и скорости ветра. Ночью, в пасмурную погоду, а также при ветре 12 м/с и более поправка равна нулю.
P - Атмосферное давление - приведенное к уровню моря атмосферное давление.
Po - Атмосферное давление - измеренное на уровне метеостанции атмосферное давление.
Tmin - Минимальная температура - минимум температуры воздуха на высоте 2 м над землей.
Tmax - Максимальная температура - максимум температуры воздуха на высоте 2 м над землей.
R - Количество осадков - Количество выпавших осадков за период времени, мм. При наведении курсора мыши на число - период времени, за который выпало указанное количество осадков.
R24 - Количество осадков - Количество выпавших осадков за 24 часа, мм.
S - Снежный покров - Высота снежного покрова, см. При наведении курсора мыши на число - состояние снежного покрова и степень покрытия местности в баллах.